Погода Нижний Тагил

Погода Нижний Тагил : погода сейчас, прогноз погоды и архив. Всё, что Вы хотите узнать о погоде Нижний Тагил!

Хотите узнать прогноз погоды Нижний Тагил? Тогда Вам сюда: Погода Нижний Тагил

Поиск расширенной информации на нашем сайте:

Полезная информация:

Другие новости

Новости СМИ2

Главная страница сайта

Новости сайта

03.07.2017

Напоминаем, что на нашем специализированном сайте Метеоцентр.Азия вы можете получить высокодетализированные автоматические прогнозы погоды по пунктам России, СНГ и мира в авиационном формате (включающие направление и скорость ветра, видимость, явления погоды, количество и форму облачности, нижнюю и верхнюю границу облачности).

Рекомендуем:

Погода Нижний Тагил - сегодня

Время (UTC), дата Ветер
(°,м/с) 
Видим.   Явления Облачность Т
(°С)
Тd
(°С)
f(%) Тe
(°С)
Pmin
(гПа)
dP
(гПа)
Po
(мм)
O2
(г/м3)
Тmin Tmax R s Состояние
почвы
00 22.05.19 тихо ()   20000 м    9/5 600 м средняя 
[Sc|As op]
+0.6 +0.5 99 +1  1013.5  -0.2  736  296           
03 22.05.19 250 (З) 20000 м    10/6 600 м средняя 
[Sc|As op]
+4.7 +2 83 +6  1013.4  0.3  736  291  +0.1        влажная 
06 22.05.19 310 (СЗ) 20000 м    8/8 600 м 
[Sc]
+10.5 -1.8 42 +10  1012.2  -0.5  736  286           
09 22.05.19 280 (З) 20000 м    9/9 600 м кучево-дожд. 
[Cb cap]
+11.7 -4 33 +11  1011.6  -0.5  735  285           
12 22.05.19 270 (З) 20000 м    10/10 600 м кучево-дожд. 
[Cb cap]
+12.9 -5 28 +13  1010.7  -0.7  735  283           
15 22.05.19 160 (Ю) 20000 м    10/8 600 м кучево-дожд., средняя 
[Cb cap|Ac trans]
+12.4 -2.1 36 +14  1010.3  -0.4  735  283    +14.2       
18 22.05.19 110 (В) 20000 м    9/9 600 м кучево-дожд. 
[Cb cap]
+5.7 +2 77 +7  1011.2  0.2  735  290           
21 22.05.19 110 (В) 20000 м    9/9 600 м кучево-дожд. 
[Cb cap]
+4.5 +0.8 77 +5  1010.8  -0.5  734  291           
00 23.05.19 090 (В) 20000 м    6/3 600 м средняя 
[Sc|Ac trans]
+0.4 -0.6 93 +1  1010.6  -0.6  734  295           
03 23.05.19 200 (Ю) 20000 м    5/0 средняя, верхняя 
[Ac trans|Ci fib]
+11.3 -0.2 45 +12  1008  -1.3  733  284  +0.3        влажная 
06 23.05.19 220 (ЮЗ) 20000 м    8/0 средняя, верхняя 
[Ac lent|Ci fib]
+16.9 -1.8 28 +17  1005  -2.3  731  278           
09 23.05.19 230 (ЮЗ) 5{11}  20000 м    8/0 средняя 
[Ac lent]
+17.9 +0.5 31 +18  1003  -1.8  730  276           
12 23.05.19 210 (ЮЗ) 4{11}  20000 м    10/10 600 м кучево-дожд. 
[Cb cap]
+16.9 +0.6 33 +17  1000.6  -2.4  728  276           
15 23.05.19 220 (ЮЗ) 4{11}  20000 м    9/5 600 м кучево-дожд., средняя 
[Cb cap|Ac lent]
+15.3 +5.2 51 +15  997.8  -2.9  726  276    +18       
18 23.05.19 210 (ЮЗ) 3{10}  20000 м    10/8 600 м кучево-дожд., средняя 
[Cb cap|As op]
+11.7 +8.7 82 +11  996.6  -1.5  725  278           
21 23.05.19 290 (З) 5-12{12}  4000 м  слаб. дождь  10/0 средняя 
[As op]
+10.4 +9.8 96 +11  994.5  -2.1  723  279           
00 24.05.19 340 (С) 5{12}  20000 м  {дождь}  10/0 средняя 
[As op]
+5.1 +4.2 94 +3  998.2  2.9  725  286           
03 24.05.19 350 (С) 20000 м    10/5 600 м кучево-дожд., средняя 
[Cb cap|As op]
+3.9 +2.2 89 +3  1000.4  727  288  +3.4      влажная 
06 24.05.19 290 (З) 20000 м    8/8 600 м кучево-дожд. 
[Cb cap]
+6.3 +0.4 66 +5  1001.4  1.2  728  286           
09 24.05.19 340 (С) 20000 м    9/9 600 м кучево-дожд. 
[Cb cap]
+7.9 +3.7 75 +7  1002.6  1.3  729  285           
12 24.05.19 320 (СЗ) 4{11}  20000 м    8/8 600 м кучево-дожд. 
[Cb cap]
+7.2 -4.8 42 +6  1004.6  1.8  730  287           
15 24.05.19 330 (СЗ) 3{10}  20000 м    9/9 600 м кучево-дожд. 
[Cb cap]
+5.8 -5.7 43 +5  1006.5  1.7  731  289    +8.2       
18 24.05.19 300 (СЗ) 20000 м    6/6 600 м 
[Sc]
+2.7 -2.6 68 +1  1009.2  2.3  733  293           
21 24.05.19 310 (СЗ) 20000 м    4/4 600 м 
[Sc]
+1.4 -3.3 71 1010.8  1.3  734  295           
00 25.05.19 300 (СЗ) 20000 м    ясно 
-0.2 -3.7 77 -2  1012.8  1.8  735  297           
Время (UTC), дата Ветер
(°,м/с) 
Видим.   Явления Облачность Т
(°С)
Тd
(°С)
f(%) Тe
(°С)
Pmin
(гПа)
dP
(гПа)
Po
(мм)
O2
(г/м3)
Тmin Tmax R s Состояние
почвы

Для получения пояснительной информации подведите курсор к названию столбца.

ПОГОДА Нижний Тагил - архив

Всё, что Вы хотите узнать о погоде Нижний Тагил - удобно и подробно!

Выберите нужную дату (начиная с 1 января 2018* года) и нажмите кнопку "Найти".
Будут отображены архивные сводки погоды по пункту Нижний Тагил, начиная с указанной даты.


Отображать данные в формате CSV (для использования в таблицах Excel)


Внимание! Наш архив погоды предназначен исключительно для личного некоммерческого использования в познавательных целях. Если Вам необходимы официальные справки о состоянии погоды (для производственных, юридических, коммерческих и т.п. целей), обращайтесь в органы Росгидромета.

*Примечание: данная дата относится к архиву по метеостанциям СССР (Россия, СНГ, Балтия).
Архив по метеостанциям Зарубежной Европы и Азии (кроме Китая) хранится 10 дней, по другим регионам земного шара (Китай, Африка, Америка, Австралия, Океания) - 1 день.

Нижний Тагил - район местоположения метеостанции


Название, широта, долгота, высота метеостанции:
Нижний Тагил 57.9°ш. 60.1°д. 260 м над ур. моря [Российская Федерация]

Дополнительная информация

В oтличие oт бoльшинства пoгoдных сайтoв мы публикуем пoдрoбную метеoинфoрмацию в детальнoм прoфессиoнальнoм фoрмате.

Характеристики температуры и влажнoсти вoздуха измеряются на высoте 2 м в тени вдали oт зданий и деревьев.
Скoрoсть ветра измеряется на высoте 10 м (на урoвне рoста челoвека скoрoсть ветра ниже в 1.5-2 раза). Если метеoстанция нахoдится в гoрoде или в лесу, тo скoрoсть ветра занижена на 2-4 м/с пo сравнению с oткрытым местoм. Скoрoсть ветра над акватoриями крупных рек и oзёр, а также на вершинах хoлмoв на 2-5 м/с выше, чем в oбычных услoвиях.
Атмoсфернoе давление в разных тoчках местнoсти мoжет значительнo oтличаться oт давления на метеoстанции, в зависимoсти oт услoвий рельефа (при пoдъёме на 10 м давление пoнижается примернo на 1 мм рт.ст.).